Location: Aghk�ilisa
(40.0189°N, 45.0097°E)
Time: 19:35:18
(UTC+00:00)

USA 238 - Pass Details

Date: 21 October 2019
Orbit: 1026 x 1186 km, 63.4° (Epoch: 11 November)

Event Time Altitude Azimuth Distance (km) Brightness Sun altitude
Rises 15:19:38 0° 213° (SSW) 3,762 7.1 -13.6°
Reaches altitude 10° 15:22:12 10° 213° (SSW) 2,820 6.4 -14.0°
Maximum altitude 15:28:51 88° 302° (WNW) 1,054 3.7 -15.3°
Drops below altitude 10° 15:35:46 10° 34° (NNE) 2,917 5.7 -16.6°
Enters shadow 15:37:44 - 34° (NE) 3,632 6.2 -17.0°
